Location: Home
(42.5358°N, 72.7383°W)
Time: 06:36:07
(UTC-05:00)

Courier 1B Rocket - Pass Details

Date: 30 November 2021
Orbit: 920 x 1202 km, 28.2° (Epoch: 25 January)

Event Time Altitude Azimuth Distance (km) Brightness Sun altitude
Rises 01:45:28 0° 241° (WSW) 3,545 - -56.5°
Reaches altitude 10° 01:48:38 10° 227° (SW) 2,607 - -56.0°
Maximum altitude 01:53:15 22° 179° (S) 1,922 - -55.2°
Drops below altitude 10° 01:57:58 10° 131° (SE) 2,677 - -54.4°
Sets 02:01:16 0° 116° (ESE) 3,665 - -53.9°
